Location: *
(45.5667°S, 177.5167°W)
Time: 16:16:56
(UTC+00:00)

ARGOS - Pass Details

Date: 29 May 2022
Orbit: 821 x 834 km, 98.4° (Epoch: 06 July)

Event Time Altitude Azimuth Distance (km) Brightness Sun altitude
Exits shadow 05:30:56 17° 110° (ESE) 1,998 4.5 -12.5°
Maximum altitude 05:32:20 19° 90° (E) 1,906 4.5 -12.7°
Drops below altitude 10° 05:36:03 10° 46° (NE) 2,433 5.3 -13.3°
Sets 05:39:07 0° 28° (NNE) 3,354 6.2 -13.8°
